RH
26 27 29 31 29 27 26 26 26 26 25 25 28 32 34 37 41 39 36 41 50 56 60 61 59 57 50 42 36 32 30 25 20 15 12 10 7 4 4 4 4 4 4 3 3 3 3 3 3 3 3 3 3 3 3 3 3 3 3 3 3 3 3 3 3 3 3 4 4 4 4 4 4 4 4 5 5 6 7 8 9 10 11 12 13 13
26 27 29 31 30 28 27 26 26 25 25 25 27 32 35 37 42 44 39 40 48 55 60 58 56 55 49 43 39 35 30 25 21 17 13 11 9 5 4 4 4 4 4 3 3 3 3 3 3 3 3 3 3 3 3 3 3 3 3 3 3 3 3 3 3 3 3 3 3 3 4 4 4 4 4 4 4 5 5 5 6 7 8 10 11 12
28 28 30 33 33 32 30 28 27 26 25 25 26 30 34 36 40 46 44 39 44 51 54 53 53 52 48 46 43 36 30 26 22 20 16 12 10 6 4 4 4 4 4 3 3 3 3 3 3 3 3 3 3 3 3 3 3 3 3 3 3 3 3 3 3 3 3 3 3 3 3 3 3 3 4 4 4 4 4 4 5 5 6 7 8 9
31 31 32 35 36 35 32 29 28 26 26 25 24 26 31 35 37 41 43 40 41 45 48 51 50 49 48 48 44 37 32 28 24 23 20 15 11 8 5 3 4 4 4 3 3 3 3 3 3 3 3 3 3 3 3 3 3 3 3 3 3 3 3 3 3 3 3 3 3 3 3 3 3 3 3 3 4 4 3 4 3 4 4 5 5 6
33 33 33 36 37 35 33 30 29 27 26 24 24 24 27 33 37 40 44 42 39 40 44 49 48 47 48 47 44 39 33 29 27 25 24 19 13 10 7 4 4 3 3 3 3 3 3 3 3 3 3 3 3 3 3 3 3 3 3 3 3 3 3 3 3 3 3 3 3 3 3 3 3 3 3 3 3 3 3 3 3 3 3 3 4 4
36 35 35 36 37 36 34 31 30 28 26 24 24 24 25 29 34 41 47 45 38 38 43 46 46 46 47 46 45 42 37 33 30 27 26 24 17 12 9 5 4 4 4 3 3 3 3 4 3 3 3 3 3 3 3 3 3 3 3 3 3 3 3 3 3 3 3 3 3 3 3 3 3 3 3 3 3 3 3 3 3 3 3 3 3 3
38 38 36 36 38 37 34 32 31 28 27 26 25 24 25 27 31 38 46 45 37 37 42 44 48 49 47 47 47 45 42 39 34 30 29 28 22 15 11 7 4 4 4 3 3 3 3 4 4 4 3 3 3 3 3 3 3 3 3 3 3 3 3 3 3 3 3 3 3 3 3 3 3 3 3 3 3 3 3 3 3 3 3 3 3 3
41 41 40 39 39 38 36 33 32 30 28 28 27 27 26 27 29 33 41 45 38 36 40 45 50 51 47 47 47 46 47 45 42 38 33 30 26 19 13 9 6 4 4 4 3 3 3 4 4 4 4 3 3 3 3 3 3 3 3 3 3 3 3 2 3 3 3 3 3 3 3 3 3 3 3 3 3 3 3 3 3 3 3 3 3 3
45 44 42 42 41 40 38 34 32 31 30 30 30 30 28 27 29 30 35 42 41 36 38 44 49 49 46 46 46 47 49 51 51 46 38 30 27 24 18 12 8 5 4 4 4 3 3 4 4 4 4 4 4 3 3 3 3 3 3 3 3 3 3 3 2 3 2 3 3 3 3 3 3 3 3 3 3 3 3 3 3 3 3 3 3 3
47 44 42 42 43 42 39 36 34 33 32 33 33 32 30 29 29 28 29 37 44 41 37 40 45 47 46 46 47 49 50 53 54 50 43 34 29 27 22 16 11 7 5 4 4 4 3 4 4 4 4 4 4 3 3 3 3 3 3 3 3 3 3 3 3 2 2 2 2 3 3 3 3 3 3 3 3 3 3 3 3 3 3 3 3 3
44 43 43 43 43 42 41 38 35 34 33 34 33 32 31 29 27 26 25 31 41 45 40 37 39 43 46 47 49 51 51 52 52 49 46 40 33 29 26 21 14 9 6 4 4 4 4 3 3 4 4 4 4 3 3 3 3 3 3 3 3 3 3 3 3 2 2 3 2 2 3 2 3 3 3 3 3 3 3 3 3 3 3 3 3 3
45 45 46 46 45 44 42 40 37 35 33 34 34 34 32 30 27 26 24 26 35 43 42 37 35 39 45 48 50 52 52 51 48 47 47 43 39 35 30 25 19 13 8 5 4 4 4 4 3 3 4 4 4 3 3 3 3 3 3 3 3 3 3 3 3 3 2 3 2 2 2 2 2 3 3 3 3 3 3 3 3 3 3 3 3 3
52 52 51 52 51 49 46 43 40 38 35 35 35 35 33 30 28 25 24 24 28 38 43 38 34 37 42 46 50 53 54 51 48 47 47 46 44 40 35 30 24 18 11 7 5 4 4 4 3 3 3 4 4 4 4 3 3 3 3 3 3 3 4 3 3 3 3 3 3 2 2 2 2 2 2 2 3 3 3 3 3 2 3 3 3 3
56 56 53 54 54 54 53 49 45 42 39 37 36 35 33 31 28 26 25 23 24 33 41 40 34 35 40 44 50 54 54 52 50 49 49 50 49 44 40 35 29 23 16 10 6 4 4 4 4 4 3 4 4 3 4 3 3 4 4 4 4 3 3 3 3 3 3 3 3 3 2 2 2 2 2 2 2 3 2 3 3 2 3 2 2 3
58 57 53 51 52 54 55 54 50 46 43 40 39 39 37 33 30 29 27 24 23 27 37 41 37 35 39 44 49 53 52 52 52 51 51 52 52 50 46 40 35 28 20 14 8 5 5 4 4 4 3 3 4 4 3 3 3 3 4 4 4 4 3 3 4 3 3 3 3 3 3 2 2 2 2 2 2 2 2 2 3 3 3 2 2 2
58 56 53 50 50 51 53 54 53 50 47 44 42 42 41 37 34 31 29 26 24 24 32 42 41 38 39 43 47 50 52 55 55 53 53 53 54 53 50 44 39 33 25 18 11 7 5 5 4 4 4 4 4 4 4 3 3 3 3 4 3 4 4 3 3 3 3 3 3 3 3 2 3 2 2 2 2 2 2 2 2 2 3 3 3 2
56 53 51 50 50 49 49 52 55 54 52 49 45 45 44 41 36 32 30 29 25 23 30 40 42 39 40 43 45 48 51 55 56 55 55 54 53 54 52 48 42 37 30 22 15 10 6 5 4 4 4 4 4 4 5 4 4 3 3 3 3 3 4 3 3 3 3 3 3 3 3 3 3 2 2 2 2 2 2 2 2 2 3 3 3 3
55 52 50 49 49 47 45 48 54 56 55 53 49 47 45 42 37 33 31 30 27 24 27 38 42 38 40 44 45 46 48 52 57 58 57 55 53 52 53 51 46 40 35 27 19 13 8 5 4 4 4 4 4 4 4 4 4 4 3 4 4 4 4 4 4 4 3 3 3 3 3 3 3 3 2 2 2 2 2 2 2 2 2 2 3 3
51 50 47 45 45 44 43 45 48 52 55 56 53 49 46 43 39 37 33 30 29 25 24 34 41 38 39 45 45 43 45 50 55 57 58 58 54 52 52 53 50 44 38 33 24 16 11 7 4 5 4 4 4 3 4 4 4 4 4 4 4 4 4 4 4 4 4 3 3 3 3 3 3 3 3 2 2 2 2 2 2 2 2 2 3 3
46 45 43 40 40 42 43 43 44 47 50 54 54 50 47 45 42 40 37 33 31 28 23 28 39 41 39 42 44 42 43 48 53 55 58 59 56 53 52 53 53 49 43 37 30 21 15 10 6 5 4 4 4 4 4 4 4 4 4 4 4 4 4 4 4 4 4 4 4 4 4 3 3 3 3 3 2 2 2 2 2 2 2 2 2 3
44 44 42 40 39 40 42 43 45 47 48 50 52 51 48 46 44 42 40 36 34 33 27 25 35 43 40 39 43 43 44 48 52 56 58 59 59 57 54 52 53 53 48 41 34 27 19 13 8 5 4 4 4 4 4 3 4 4 4 4 4 4 5 4 4 4 4 4 4 4 4 4 3 3 3 3 3 3 2 2 2 2 2 2 2 3
41 42 42 43 42 41 43 45 47 49 49 49 50 51 49 47 46 44 42 40 38 37 33 25 29 42 44 39 41 45 47 49 53 58 60 62 63 62 58 55 54 54 53 46 38 32 25 17 11 7 5 5 4 4 4 4 4 4 4 4 4 4 5 4 4 4 4 4 4 4 3 3 4 3 3 3 3 3 2 2 2 2 2 2 2 3
40 41 42 42 42 41 44 46 46 47 47 48 48 49 49 48 48 48 45 44 42 40 36 29 26 38 47 43 41 46 49 50 55 60 63 66 68 67 63 59 56 54 55 52 44 38 31 23 15 9 6 5 4 5 5 4 4 4 4 4 4 4 4 4 4 4 4 4 4 4 4 3 3 3 3 3 3 3 3 3 2 2 2 2 2 2
40 39 38 38 38 40 41 42 42 42 43 44 45 47 48 48 49 49 47 46 45 39 36 32 27 34 47 49 45 49 51 52 57 61 65 69 72 73 69 64 60 55 54 56 51 44 37 29 20 12 7 5 5 5 5 5 4 4 4 4 4 4 4 4 4 4 4 4 4 4 4 3 4 3 3 3 3 3 3 3 3 2 2 2 2 2
42 38 36 35 34 35 35 34 34 36 39 42 44 45 48 48 48 48 46 45 46 41 36 34 29 31 47 55 52 52 52 54 61 64 66 71 75 77 75 68 63 57 54 56 56 51 43 34 26 18 10 7 5 5 5 5 5 4 4 4 4 4 4 4 4 4 4 4 4 4 4 4 4 3 3 3 3 3 3 3 3 3 3 2 2 2
44 40 37 35 35 34 34 33 33 35 37 42 45 47 49 50 48 46 46 44 45 46 41 36 30 29 44 57 56 56 56 58 65 69 69 72 75 78 79 73 66 61 57 55 57 57 51 41 32 24 15 9 5 5 5 5 5 5 4 4 4 4 4 4 4 4 4 4 4 4 4 4 4 4 4 3 3 3 3 3 3 3 3 3 2 2
48 45 41 38 40 40 39 38 37 37 37 40 44 46 49 53 50 46 46 44 45 47 43 37 30 27 40 55 57 57 60 60 63 69 72 74 75 78 81 79 71 65 61 58 57 59 58 50 39 30 22 14 8 5 5 5 5 5 5 5 4 4 4 4 4 4 4 4 4 4 4 3 4 4 3 3 3 3 3 3 3 3 3 3 3 3
50 50 46 43 43 44 43 41 38 37 37 37 40 43 48 53 52 47 46 45 44 45 43 39 33 27 37 53 56 57 62 62 61 65 70 75 77 80 84 84 79 72 65 60 57 58 60 57 48 37 28 20 12 7 5 5 5 5 5 5 4 4 4 4 4 4 4 4 4 4 4 3 3 3 3 3 3 3 3 3 3 3 3 3 3 3
51 51 51 49 47 46 44 42 41 39 38 37 37 40 43 47 50 49 47 45 45 44 43 43 37 28 35 52 58 58 62 62 60 62 68 75 80 84 88 88 85 79 70 63 60 57 58 60 57 47 36 27 18 10 6 4 5 5 5 5 5 5 4 4 4 4 4 4 4 4 4 3 4 3 3 3 3 3 3 3 3 3 3 3 3 3
51 52 53 53 50 48 46 45 44 42 40 38 37 39 39 40 45 49 47 45 44 43 43 44 40 30 33 50 60 62 63 61 61 63 67 73 81 88 92 92 89 84 77 69 63 58 57 60 62 57 46 35 25 16 9 5 4 5 5 5 6 6 5 4 4 4 4 4 4 4 4 4 4 3 3 3 3 3 3 3 3 3 3 3 3 3
53 52 52 53 51 49 47 46 45 43 41 40 39 39 37 36 39 44 46 45 43 43 43 44 41 31 32 49 63 67 68 65 65 68 67 70 80 89 95 96 92 87 82 74 67 61 58 60 62 62 57 46 35 25 15 8 5 5 5 5 5 6 6 5 4 4 4 4 4 4 4 4 4 4 4 4 3 4 3 3 3 3 3 3 3 3
53 53 51 51 50 47 44 44 44 42 41 41 39 37 36 37 38 40 43 44 42 42 42 43 42 32 31 48 63 70 74 72 70 72 68 68 79 89 96 100 96 91 87 81 73 66 62 61 61 64 64 58 48 37 25 14 7 4 5 5 5 6 6 6 5 4 4 4 5 4 4 4 4 4 4 4 4 4 3 4 4 3 3 3 3 3
53 53 50 49 49 48 44 43 43 42 42 40 38 36 36 39 39 38 40 43 42 43 42 42 42 33 30 46 61 68 76 79 77 75 70 70 79 88 95 102 103 97 90 85 79 71 65 63 62 63 66 65 60 51 38 25 13 6 5 5 6 6 6 6 6 5 5 4 5 5 5 5 4 4 4 4 4 4 4 4 4 4 4 3 3 3
52 52 50 46 48 49 46 45 45 44 41 38 37 37 36 37 39 39 40 42 43 45 42 41 42 32 30 47 60 63 73 82 82 79 74 73 80 87 94 102 106 103 95 89 85 77 70 66 64 64 66 67 66 60 50 37 23 12 6 5 6 6 6 6 6 6 6 5 5 5 5 5 5 4 4 4 4 4 4 4 4 4 4 4 4 3
51 51 49 47 48 49 47 45 44 41 39 38 38 38 36 35 38 39 40 41 42 44 42 41 41 31 29 48 62 62 70 79 81 82 81 79 80 85 93 100 105 106 102 93 88 83 75 70 67 66 67 68 68 66 60 50 36 21 10 5 5 6 6 6 6 6 6 6 5 5 5 5 5 5 5 5 4 4 4 4 4 4 4 4 4 4
50 48 48 47 47 46 44 42 41 40 40 40 39 38 36 35 36 38 39 39 40 42 41 41 40 30 29 49 63 63 69 74 76 82 85 82 79 80 89 97 101 104 105 97 90 86 79 72 69 68 68 69 68 68 67 60 48 33 19 9 5 6 6 6 6 6 6 6 6 5 5 5 5 5 5 5 5 5 5 5 5 5 4 4 4 4
49 47 47 46 43 42 40 38 39 40 40 39 37 36 35 35 35 36 39 39 41 43 42 41 39 29 30 49 59 61 70 74 73 80 85 82 79 78 85 94 97 100 104 100 94 88 82 75 72 71 71 71 69 69 70 67 59 45 31 17 7 5 6 7 7 6 6 6 6 6 6 5 5 5 6 5 5 5 5 5 5 5 5 5 4 4
43 42 42 41 39 38 36 35 35 35 36 35 34 35 36 35 34 35 38 40 42 44 41 40 37 28 32 50 56 56 68 75 74 80 83 81 80 80 84 93 97 99 102 102 97 92 86 79 74 71 72 73 72 71 70 70 67 57 43 28 14 6 5 6 7 7 6 6 7 6 6 6 5 5 6 6 6 5 5 5 6 6 5 5 5 5
39 38 37 37 37 36 36 36 34 33 33 33 35 36 36 35 33 33 36 38 41 43 40 39 37 28 33 52 57 55 65 72 75 82 83 80 82 81 84 94 99 99 102 102 98 93 89 84 77 73 73 74 76 76 73 71 70 64 55 42 25 12 6 6 6 8 7 6 6 7 6 6 6 6 5 6 6 6 6 5 5 6 6 6 6 5
37 36 35 36 37 36 36 37 37 36 35 35 37 37 36 35 33 33 35 36 39 43 41 40 37 29 36 55 60 56 62 70 77 84 82 80 83 83 84 93 99 102 106 105 99 93 90 87 82 78 77 77 78 79 77 74 71 68 62 54 39 22 11 6 6 7 8 8 6 6 7 6 6 6 5 5 6 6 6 6 6 6 6 6 6 6
37 37 36 36 36 36 36 37 38 39 38 38 39 37 34 33 32 33 35 36 40 43 42 41 37 30 39 59 63 58 64 73 79 83 82 83 86 85 86 94 100 103 107 108 102 95 91 87 82 80 81 82 82 82 80 78 76 71 66 60 52 37 20 10 7 6 7 9 7 6 7 7 7 6 5 6 6 5 6 6 6 6 6 7 7 7
36 36 36 36 36 36 36 35 36 38 37 36 36 35 34 32 31 32 34 36 41 43 42 41 36 31 44 62 64 62 69 77 79 81 83 87 89 88 91 98 101 101 103 107 105 99 93 89 86 82 81 84 88 88 84 81 80 77 70 63 59 50 32 17 10 7 7 9 9 7 6 7 7 7 6 6 6 5 6 6 6 6 6 6 8 8
37 36 36 36 34 34 34 33 32 33 33 33 33 33 33 31 30 31 32 35 41 43 42 41 35 33 49 64 65 67 74 77 76 79 85 91 92 92 95 99 101 100 101 106 108 101 94 92 90 86 84 84 87 89 87 84 82 80 75 67 62 57 44 27 16 10 7 8 9 9 7 6 7 8 7 7 6 6 6 6 6 7 6 6 7 7
35 33 33 33 32 31 31 31 30 30 31 32 32 32 32 30 29 30 31 35 40 41 41 40 33 36 53 65 64 68 74 73 73 79 88 94 94 95 98 101 103 102 103 108 110 103 97 95 93 91 89 88 87 88 89 88 84 81 79 72 65 60 52 38 25 16 10 8 9 10 9 7 7 7 7 8 7 6 6 6 6 6 7 7 6 7
42 42 42 41 39 38 36 35 34 33 32 33 32 31 31 30 29 29 31 35 39 40 40 37 32 40 57 64 60 63 71 72 74 81 91 97 97 98 101 103 103 102 103 107 108 102 98 98 98 95 93 92 92 92 92 91 87 83 80 76 69 63 56 46 35 24 16 10 8 9 10 8 7 7 7 7 8 7 6 7 7 6 6 6 7 7
51 51 51 50 49 51 52 51 48 41 35 33 33 31 29 28 27 29 31 35 38 39 38 35 33 44 60 62 55 58 68 73 77 84 94 100 100 100 102 102 102 101 102 105 105 100 96 98 98 96 94 95 96 97 97 95 91 85 82 78 71 64 59 52 43 33 23 16 10 9 10 10 8 7 7 7 7 8 7 6 7 7 7 7 6 7
68 69 73 78 80 80 81 81 77 65 50 37 31 28 27 26 26 28 32 35 38 38 36 32 35 50 62 60 54 58 68 75 81 89 97 101 100 100 103 104 103 102 103 104 102 96 95 98 98 97 99 99 97 96 98 98 95 88 84 80 71 63 58 55 49 40 30 22 15 10 10 11 10 8 8 7 7 7 7 7 6 6 7 7 7 7
90 91 94 98 98 94 90 88 86 82 72 53 37 28 24 25 26 29 32 35 37 35 32 33 42 55 62 59 57 63 71 78 85 93 98 100 100 102 106 107 105 103 104 103 97 92 94 99 98 98 100 101 99 97 97 98 96 92 88 82 73 62 55 53 52 47 38 29 22 14 11 12 12 9 8 8 7 8 7 7 7 6 6 7 8 7
92 89 86 88 87 83 77 71 67 71 71 58 41 30 25 24 27 30 33 35 34 32 32 38 50 59 60 60 63 69 76 82 88 93 98 99 100 102 104 104 105 107 105 99 92 90 96 101 101 101 103 104 103 103 101 99 98 97 93 87 77 64 54 48 49 50 44 35 27 19 13 12 13 11 9 9 8 8 8 7 7 7 6 6 7 7
91 86 80 78 75 66 54 47 45 49 53 47 35 27 25 25 28 31 33 33 31 32 37 47 56 60 61 64 69 75 80 85 88 93 98 101 102 103 102 100 105 109 103 93 88 91 96 101 102 103 105 106 108 110 108 104 101 98 94 89 81 68 55 45 43 47 46 38 31 24 15 11 12 12 10 9 8 8 9 9 8 7 6 6 6 7
91 83 71 62 57 47 35 31 34 39 44 42 32 25 25 27 30 32 32 31 33 38 47 54 59 61 64 69 74 78 84 88 92 96 100 102 103 104 104 103 106 106 97 88 87 92 98 102 103 102 104 108 111 111 107 103 101 99 96 92 85 73 58 44 39 42 43 38 33 27 19 13 11 12 11 9 9 8 9 10 10 8 7 6 6 7
Wind_Speed
39 42 45 47 48 48 50 53 56 59 61 63 66 70 72 75 80 82 85 86 86 88 91 93 95 97 98 98 99 99 99 98 98 96 92 88 83 77 70 65 61 59 58 58 57 56 55 53 52 50 49 50 51 53 56 58 62 64 67 69 72 74 77 80 83 86 89 92 95 98 101 103 105 107 110 112 114 117 120 122 124 127 129 132 134 136
41 42 44 46 49 52 54 55 58 60 63 65 68 70 72 74 80 84 85 86 87 89 90 90 94 98 99 101 103 103 101 99 100 100 97 92 87 80 73 67 63 60 58 57 56 55 55 54 53 52 50 48 48 50 52 54 56 60 62 65 68 70 72 75 78 81 84 87 90 93 96 99 100 102 105 107 109 111 113 116 118 120 123 126 129 131
41 42 44 47 51 54 57 58 61 63 66 68 69 70 72 74 77 83 86 88 90 91 90 90 93 96 100 104 105 104 104 102 102 104 102 97 91 83 76 69 65 62 60 58 57 55 55 54 53 52 50 48 47 47 48 50 52 54 57 60 63 66 68 71 74 77 79 82 85 88 90 93 96 98 100 102 104 107 109 111 113 115 117 119 122 125
41 43 45 49 53 56 58 61 63 66 69 70 70 70 73 75 77 81 86 90 91 90 90 93 94 95 100 103 104 104 105 104 104 106 106 102 96 89 81 73 66 62 59 58 57 56 55 54 52 51 49 47 46 45 45 46 48 49 52 54 57 60 64 67 69 72 74 76 80 83 85 88 91 93 96 98 101 104 106 108 109 111 112 114 117 119
42 45 48 51 54 57 59 62 65 67 68 69 71 72 74 77 80 84 88 91 91 89 91 93 95 97 101 102 103 105 105 106 106 107 108 107 102 95 88 79 72 66 61 58 57 57 56 55 53 51 48 46 45 44 44 44 44 45 47 50 52 54 58 61 64 68 70 71 74 78 80 82 85 88 91 94 97 100 103 104 105 107 108 110 112 115
44 47 50 53 55 58 60 62 65 67 68 71 74 76 77 79 82 86 89 90 90 91 92 92 95 98 100 102 104 106 108 109 109 108 110 110 105 99 92 85 78 72 67 63 60 58 57 56 55 52 49 46 44 43 43 43 44 44 45 47 48 49 52 55 58 61 64 67 69 73 75 77 80 82 85 89 93 96 98 99 101 103 104 105 107 110
46 49 51 53 56 58 60 62 64 66 69 72 75 79 81 82 84 85 87 89 91 94 94 95 97 99 100 103 106 108 111 112 111 111 112 112 109 103 97 90 83 77 72 67 64 61 60 58 56 54 51 49 46 43 42 42 43 44 45 47 47 47 49 51 52 54 57 61 64 68 71 73 76 78 81 85 88 90 92 94 96 98 100 101 103 105
47 50 52 54 55 57 60 61 62 65 69 73 77 81 83 84 85 85 86 88 90 94 96 96 98 99 101 105 108 110 114 115 116 116 115 113 112 108 102 95 87 80 74 70 66 63 60 59 57 55 53 50 48 45 43 43 42 43 43 45 46 47 48 49 50 51 53 56 60 63 65 68 72 75 77 80 83 85 88 90 91 93 96 98 99 101
48 50 51 53 56 57 59 61 63 66 69 73 77 81 83 85 86 86 85 87 90 93 96 97 98 99 102 106 110 112 115 118 120 119 116 115 114 113 108 101 94 85 78 72 68 64 62 60 58 56 54 51 48 46 45 44 44 43 43 43 44 45 47 49 49 50 52 53 55 57 60 63 66 69 72 75 78 81 84 86 87 89 92 94 97 98
48 50 52 53 55 57 59 62 65 67 69 72 75 78 82 85 87 87 86 87 90 93 95 99 101 103 105 108 113 115 116 118 119 118 117 116 115 116 113 108 101 93 84 77 71 66 63 60 58 56 54 52 49 47 45 44 44 44 44 43 43 43 44 47 48 50 51 51 52 54 57 60 62 65 67 69 73 76 79 82 83 85 87 90 93 95
48 51 53 54 55 57 59 62 64 66 68 71 74 77 81 84 85 87 88 88 90 93 97 101 103 105 108 112 114 116 117 117 117 118 118 118 118 118 117 113 107 100 91 83 76 71 66 62 59 57 54 52 49 47 45 45 44 43 43 43 43 42 43 44 46 47 49 50 51 53 55 56 58 61 63 65 68 70 73 77 79 81 83 86 89 91
49 51 53 54 56 57 59 62 64 66 69 71 74 77 79 81 84 87 89 90 91 95 100 102 104 106 110 114 115 115 117 117 118 118 119 120 121 121 120 118 113 106 99 90 82 76 71 67 63 60 58 55 52 49 47 46 45 43 42 41 41 41 41 42 43 44 46 48 50 51 52 53 55 57 60 62 64 66 69 71 74 76 78 80 84 87
49 50 52 54 56 57 59 62 65 67 69 72 74 75 76 78 81 84 89 93 94 97 100 102 104 108 111 113 115 116 117 118 120 121 122 124 124 124 123 122 118 112 104 97 88 81 76 71 67 64 61 58 54 51 49 47 46 45 43 42 41 40 40 41 41 42 43 44 47 49 50 51 53 55 57 59 61 63 65 67 69 71 73 75 78 82
48 50 52 54 56 58 61 64 66 68 71 73 74 76 78 80 82 87 92 95 96 98 100 102 105 108 110 111 113 115 116 118 121 124 126 126 126 126 125 123 121 116 109 102 94 86 80 75 71 67 64 60 56 53 49 48 46 45 44 42 42 40 39 39 40 40 41 42 43 45 47 50 51 53 54 55 57 59 61 63 65 67 68 70 72 76
49 52 54 56 58 61 64 66 68 70 72 75 77 81 83 85 87 91 94 96 98 97 98 103 107 108 109 110 111 113 116 120 123 126 127 127 126 126 126 124 123 120 113 106 98 91 84 78 74 69 66 62 59 56 53 51 49 46 44 42 41 41 39 39 38 39 40 40 41 42 44 46 49 51 52 53 54 56 58 60 62 64 65 67 68 70
51 53 55 57 60 62 65 67 69 71 74 77 79 82 85 88 89 91 94 97 99 99 100 103 106 108 108 108 110 113 118 121 124 126 128 128 127 126 125 124 123 121 117 110 102 95 87 81 76 71 68 65 63 60 57 54 51 49 46 44 42 41 40 39 38 38 38 38 39 39 41 43 45 47 49 51 52 53 55 57 59 60 61 63 65 66
52 53 55 58 61 63 65 68 70 72 75 77 80 82 85 89 90 90 93 97 100 102 101 101 103 105 106 108 111 114 117 120 123 126 128 129 128 126 125 124 122 122 120 114 106 99 91 84 78 75 71 68 65 62 59 56 53 50 48 46 44 42 41 40 38 38 37 37 36 37 38 40 42 44 46 48 49 51 52 53 55 57 58 59 61 63
53 55 57 59 61 63 65 67 71 73 74 77 80 82 84 87 90 91 93 95 98 100 101 101 102 104 106 109 110 112 114 118 122 125 127 128 128 127 125 124 123 121 121 118 111 103 95 88 82 78 74 70 66 63 61 58 55 51 49 47 46 44 42 41 40 38 38 37 36 35 35 37 39 41 43 44 46 47 49 50 51 53 54 56 57 59
53 56 58 59 62 64 66 68 69 71 74 77 79 82 84 86 90 93 94 95 98 99 100 101 102 104 106 108 109 110 113 116 120 123 125 127 128 128 126 125 124 122 121 120 116 108 100 93 86 80 75 71 68 64 62 60 57 54 50 48 47 45 44 42 41 39 38 37 37 36 35 35 35 37 39 41 42 44 45 46 48 49 50 52 54 56
53 56 59 61 63 66 68 69 70 71 73 76 78 81 84 87 90 93 95 97 99 101 101 100 101 103 105 106 108 111 115 118 121 123 124 126 128 129 128 127 126 124 122 120 118 113 106 100 92 84 78 73 70 66 63 61 58 56 53 50 47 45 44 43 41 40 39 37 36 36 36 35 35 35 36 37 39 40 42 43 44 45 46 48 50 52
53 57 60 62 65 66 69 71 73 75 75 77 79 81 84 87 89 92 95 97 99 102 104 102 101 102 104 105 108 112 117 120 122 123 124 126 128 130 130 130 128 126 124 122 120 118 113 106 98 90 82 77 73 69 66 63 60 58 56 52 49 46 44 42 41 39 38 37 35 34 33 34 34 35 35 35 36 37 38 39 41 41 42 44 46 48
53 56 60 63 66 68 70 72 74 75 77 78 80 82 84 87 90 93 96 99 101 104 106 104 102 102 105 107 110 113 117 119 121 122 123 125 127 129 131 132 131 129 126 124 122 121 118 111 103 96 88 81 76 73 69 66 63 60 57 55 51 48 44 42 41 39 38 37 36 34 33 31 32 33 33 34 34 34 35 36 37 38 38 40 42 44
54 56 59 62 65 67 69 71 72 74 75 77 79 81 84 87 90 93 95 98 101 102 104 105 104 104 106 109 111 113 116 118 119 120 122 123 126 128 130 132 133 131 129 127 124 123 120 116 108 101 94 87 81 77 74 70 66 62 59 56 54 50 46 43 41 39 37 36 35 35 34 32 30 30 31 32 32 32 33 33 34 34 35 37 39 40
55 56 59 61 64 66 67 69 70 72 73 75 78 81 84 87 90 92 94 96 99 100 101 104 106 105 106 109 111 112 113 115 117 118 120 122 124 127 129 131 133 133 131 130 128 125 122 119 113 107 100 93 86 80 77 73 70 66 62 59 55 52 49 45 42 39 37 35 34 33 33 33 31 30 29 29 30 30 31 31 31 32 32 34 35 37
58 58 59 62 63 65 66 67 69 71 73 76 78 81 85 88 90 91 92 94 97 100 101 103 106 106 105 107 110 110 110 112 114 117 119 122 124 126 128 130 132 134 134 132 130 128 125 121 117 112 105 98 91 84 79 76 73 70 66 62 58 55 51 47 44 40 38 36 34 33 32 31 31 31 30 29 29 29 29 29 28 29 30 31 33 34
62 62 62 64 65 67 69 71 72 74 76 77 80 81 84 87 89 90 92 93 96 100 102 102 103 103 103 105 108 108 108 110 112 116 119 121 123 125 127 130 132 134 135 135 133 131 128 124 120 116 110 104 97 90 83 79 76 73 69 65 62 58 55 50 46 43 40 38 35 33 31 30 29 29 29 29 29 28 28 27 26 26 28 30 31 31
63 65 66 66 68 70 72 73 75 76 77 78 80 81 83 86 88 90 92 93 95 99 101 101 101 101 101 102 105 106 107 108 111 115 118 121 123 125 127 129 131 133 135 136 135 133 130 127 124 120 115 109 103 96 89 83 78 75 73 69 65 62 58 54 50 46 43 40 37 34 32 30 29 28 28 28 28 27 26 26 25 24 25 27 29 30
63 66 67 68 69 71 73 74 75 76 78 79 80 82 83 84 87 89 91 93 94 97 100 102 102 102 100 100 102 104 106 108 111 114 117 120 122 124 126 129 131 133 134 136 136 134 132 130 127 123 119 113 107 101 94 88 82 78 75 73 69 65 62 58 54 50 46 42 39 36 33 31 29 28 27 26 26 26 26 25 24 23 22 24 26 28
63 65 68 69 70 71 72 74 75 77 78 80 81 82 83 83 85 87 90 91 93 96 99 101 101 101 100 99 101 103 105 108 111 113 116 118 121 123 125 128 130 132 134 135 135 135 133 131 129 126 122 117 112 106 99 93 87 81 77 75 72 69 65 62 58 55 51 46 42 39 36 34 31 29 27 26 25 25 25 24 23 22 21 21 23 25
63 65 67 69 70 71 72 74 75 77 78 79 81 82 83 83 84 86 88 90 92 94 97 99 100 100 99 98 100 103 105 107 110 112 115 117 119 122 124 127 129 131 133 134 135 135 134 132 130 128 125 121 116 110 104 98 92 86 80 77 74 71 68 64 61 58 55 52 48 43 39 37 34 32 29 27 26 25 25 24 23 21 20 19 20 22
63 65 67 69 70 70 71 73 74 76 77 79 80 82 83 83 84 85 87 89 90 93 95 97 98 99 98 97 100 102 104 105 108 111 114 116 118 121 124 126 129 131 132 133 134 134 134 133 131 129 127 124 120 115 109 102 96 91 85 80 76 73 70 67 63 60 58 56 53 49 44 40 37 34 32 30 28 26 25 24 23 22 20 19 18 19
63 65 66 68 69 70 70 71 73 74 76 78 79 80 82 84 85 85 86 88 89 91 94 96 97 99 98 97 97 100 102 104 106 109 112 115 118 120 123 125 128 130 131 132 133 134 134 133 132 130 128 126 123 120 115 108 101 95 89 84 79 75 73 69 66 63 60 58 56 53 49 45 41 37 34 32 30 28 26 25 24 23 21 20 18 17
64 65 66 67 68 70 70 71 73 74 76 77 78 80 82 84 85 85 85 87 89 91 93 94 96 98 98 95 95 97 100 103 105 107 111 114 117 120 122 124 127 129 130 131 132 133 134 133 132 131 129 127 125 122 119 114 107 100 94 88 83 78 75 72 68 65 62 59 57 55 53 50 46 41 37 34 32 30 28 26 24 23 23 22 20 18
64 65 66 66 67 69 70 72 73 74 76 76 78 80 81 82 84 85 86 87 88 90 91 93 94 96 96 94 94 96 98 101 104 106 110 113 116 119 121 123 125 128 130 131 132 133 133 133 133 132 130 128 126 124 121 117 112 105 98 92 87 82 77 74 71 67 63 60 58 56 55 53 50 46 42 38 34 32 30 28 26 24 23 22 22 20
64 64 66 66 67 68 70 71 72 73 75 77 78 79 80 81 82 84 85 86 87 88 89 91 93 94 94 93 94 95 97 99 103 106 110 112 115 117 119 121 123 126 129 130 131 132 132 133 133 132 131 130 128 125 122 119 116 110 103 96 91 86 81 76 73 70 66 62 59 57 55 54 52 49 46 42 39 35 32 30 28 26 24 23 22 21
64 64 65 66 67 68 69 71 72 74 76 77 78 79 80 80 80 82 83 84 84 86 88 89 91 93 92 90 92 94 95 97 101 105 108 111 113 115 117 120 122 125 128 129 130 131 131 131 132 132 132 131 129 126 123 120 117 113 108 101 95 90 84 79 75 72 68 64 61 58 56 54 53 51 49 45 42 39 36 33 31 29 27 25 23 22
65 66 66 67 68 69 70 70 72 74 75 76 76 78 79 80 80 81 82 83 84 85 86 88 90 91 90 89 90 92 93 96 99 103 106 108 111 113 116 118 121 124 126 129 130 130 131 131 131 131 131 131 130 128 125 121 118 115 111 105 99 93 88 83 78 74 71 67 63 60 57 55 53 52 51 48 45 41 39 36 33 31 29 27 26 23
67 67 68 69 69 70 71 71 71 71 73 74 75 76 78 79 79 79 80 82 82 83 85 87 89 90 89 88 89 90 92 95 98 101 105 107 110 113 115 118 121 123 125 127 129 130 130 131 131 131 131 131 131 129 126 123 119 116 112 108 102 96 90 86 81 77 73 69 66 62 58 56 53 52 51 49 48 44 41 38 35 33 30 29 27 25
68 69 69 70 71 72 73 74 74 73 73 74 75 76 77 78 78 78 78 79 80 82 83 85 88 89 88 88 89 90 91 94 98 102 105 107 110 112 115 117 120 122 124 126 127 129 129 130 130 130 131 131 131 130 128 125 120 116 113 110 105 100 94 89 84 79 75 71 68 64 61 57 55 52 50 49 48 47 44 41 38 35 32 30 28 26
70 70 70 71 72 72 72 74 75 76 75 75 76 76 76 77 78 78 77 77 78 81 83 85 88 89 88 88 89 90 91 93 98 102 105 107 110 112 114 116 118 121 123 125 126 127 128 129 129 130 130 131 131 130 129 127 123 118 114 111 107 103 98 92 87 82 78 74 70 67 64 60 57 54 51 49 48 46 45 43 40 37 35 32 30 28
72 72 72 72 73 73 72 72 74 75 75 75 75 76 76 76 77 78 78 78 79 80 83 85 87 88 88 88 90 91 91 94 98 102 105 107 110 112 113 115 117 119 122 124 126 126 127 127 128 128 129 130 130 130 130 128 125 121 115 111 108 105 101 96 91 85 80 76 72 68 65 62 59 56 54 51 48 47 45 44 42 39 36 34 32 30
73 73 74 73 73 73 73 73 72 73 74 74 73 75 75 76 76 76 77 78 80 81 82 85 87 88 87 88 90 91 92 95 99 101 104 107 109 111 113 115 116 118 121 124 125 126 126 126 127 127 127 128 129 129 129 128 126 123 117 112 108 105 102 99 94 89 84 78 74 70 66 63 60 58 56 53 50 47 45 44 42 41 38 35 33 31
75 75 75 76 75 75 74 74 73 72 73 73 73 74 75 75 76 76 76 77 78 80 82 84 86 86 85 87 89 90 92 95 98 101 104 107 109 111 113 114 116 117 120 123 125 125 125 126 126 126 126 127 128 128 128 128 126 124 119 114 109 105 102 100 96 92 87 81 76 71 68 64 61 58 56 55 53 50 47 45 43 41 40 38 35 32
78 78 77 77 77 76 76 76 75 74 74 74 74 74 74 74 74 74 74 74 76 79 81 83 85 85 84 85 88 90 92 95 98 101 104 107 109 111 113 114 116 117 119 122 124 125 125 125 125 125 126 126 127 127 127 127 126 124 120 115 110 105 102 99 97 94 90 85 79 73 69 66 63 59 56 54 53 52 49 47 44 42 40 39 38 35
76 76 76 76 76 76 76 75 75 74 73 73 74 73 73 73 72 72 72 73 75 77 79 81 83 83 82 84 86 89 92 95 98 101 104 107 109 111 112 114 116 117 119 121 123 124 125 125 125 125 125 126 126 127 127 127 126 124 121 116 111 106 101 98 96 94 92 88 82 76 71 67 64 61 58 54 52 51 50 48 46 44 42 39 38 37
70 70 70 70 69 69 70 71 71 71 71 71 71 71 71 70 70 70 71 72 74 76 78 80 81 81 81 83 86 89 92 95 98 101 104 106 109 111 112 114 116 117 118 120 123 124 125 125 125 125 125 125 126 126 127 126 125 124 121 117 111 106 101 98 95 94 92 90 86 80 74 69 65 63 60 57 53 51 50 48 46 44 43 42 39 37
64 64 64 64 64 63 64 65 66 67 67 67 67 68 68 68 67 68 69 71 73 75 77 79 79 79 80 82 85 89 92 94 98 101 103 106 108 110 112 114 115 116 118 120 122 124 124 125 125 125 125 125 126 126 126 126 125 124 122 117 112 106 101 98 95 93 91 90 88 83 77 72 68 64 61 59 56 53 50 49 47 44 42 41 41 39
62 62 62 62 63 63 63 63 63 64 65 64 64 65 65 65 65 66 68 69 72 74 76 77 77 78 80 82 86 89 92 94 97 100 103 105 107 110 112 113 115 116 118 120 122 123 124 124 125 124 124 125 125 126 126 125 124 123 121 118 113 107 102 97 94 92 91 89 88 85 80 74 70 66 63 60 58 55 52 50 48 46 42 40 39 39
64 64 63 62 63 64 64 63 61 60 61 61 61 62 62 63 63 65 67 69 71 72 73 74 76 78 80 83 86 89 92 94 97 100 103 105 107 109 111 113 115 117 119 120 122 123 124 124 124 123 123 123 124 125 125 125 124 122 120 118 113 108 102 97 93 91 89 88 87 85 81 76 71 67 64 60 59 58 55 52 50 48 45 41 39 38
67 67 65 64 65 65 63 61 58 56 56 57 57 58 59 60 62 64 66 68 70 71 72 73 75 78 81 84 86 89 92 95 98 100 103 105 108 109 111 113 115 117 119 121 122 123 123 123 123 122 122 122 123 124 125 124 123 121 120 117 114 108 103 97 93 89 88 86 85 84 81 77 72 68 64 61 57 56 56 55 52 50 48 45 41 38
68 68 66 65 65 64 61 58 55 53 54 55 56 56 57 59 61 63 65 67 68 70 72 74 77 79 82 85 87 90 93 96 99 101 103 106 108 109 111 113 115 117 119 120 122 122 122 122 122 121 121 122 122 123 124 123 122 121 119 117 113 109 104 98 93 89 86 85 84 82 81 78 74 69 65 62 58 55 53 53 53 52 50 48 45 41
Wind_Direction
10 9 8 6 2 360 0 1 1 1 2 4 6 8 8 7 6 5 5 4 4 4 4 2 359 357 354 351 352 354 354 355 355 356 355 354 351 347 344 340 336 333 329 325 322 318 315 311 307 302 296 290 285 280 276 272 270 268 266 264 262 261 259 258 257 255 255 254 253 253 252 252 252 252 252 251 251 250 250 250 249 249 249 249 249 249
8 6 6 4 2 2 2 2 2 2 2 5 6 7 8 8 7 6 5 5 4 4 3 2 0 358 355 354 355 355 355 357 358 359 359 358 355 351 348 344 340 337 333 330 326 322 319 315 312 308 303 297 291 285 280 276 273 270 268 266 264 263 261 259 258 256 255 255 254 254 253 253 252 251 250 250 250 250 250 250 250 249 249 249 249 249
6 7 7 6 6 5 3 2 2 2 3 5 6 7 7 8 8 7 5 5 5 3 1 1 1 359 358 358 357 356 357 359 0 1 1 360 358 355 352 349 345 341 338 334 330 327 323 320 317 313 309 304 298 292 287 282 277 273 270 268 266 264 263 261 259 258 256 255 254 254 253 253 253 252 251 251 250 249 248 248 247 247 247 248 248 248
9 9 8 8 7 5 3 3 3 3 4 4 4 6 7 7 8 8 7 6 5 2 360 1 1 1 1 0 358 357 358 0 2 3 2 1 0 358 355 352 349 345 342 339 335 331 328 324 321 318 314 310 305 299 294 288 284 280 276 272 268 266 264 263 262 260 259 258 257 256 254 253 253 252 252 251 251 250 249 248 247 246 245 245 245 246
10 9 8 6 5 4 3 2 3 4 3 3 3 6 7 7 7 9 8 6 4 1 1 1 1 2 3 1 359 359 360 2 3 4 4 3 2 1 358 355 352 349 347 344 340 336 333 330 326 323 319 314 310 306 301 296 291 287 282 278 274 270 267 265 263 262 261 259 258 258 257 255 254 253 252 252 251 251 250 250 250 249 247 245 244 243
7 7 6 4 3 3 3 3 3 3 2 3 4 5 7 7 7 8 7 5 3 2 2 1 2 3 3 2 2 1 2 3 4 4 5 5 4 3 1 358 356 353 350 348 346 342 338 335 331 328 324 319 315 311 307 303 299 294 289 284 280 276 272 269 266 264 262 260 259 258 257 256 255 254 253 253 252 251 251 251 251 251 250 249 247 245
5 5 4 3 3 2 2 3 2 2 3 4 4 6 6 7 7 8 6 4 4 3 2 2 3 4 4 5 5 5 5 5 4 5 6 6 5 5 4 2 359 356 353 351 349 346 343 339 336 332 329 325 321 316 312 307 303 299 295 291 287 283 279 275 272 269 266 263 261 258 257 256 255 253 252 252 252 252 252 252 251 251 251 251 250 248
4 3 3 2 2 2 2 1 0 2 4 4 5 6 6 6 6 7 5 4 4 4 3 3 3 3 4 6 7 7 7 6 6 6 5 6 7 6 5 4 2 359 356 354 351 349 346 343 340 336 333 330 326 322 318 313 309 304 300 296 292 289 284 281 276 272 269 265 263 261 260 258 256 254 253 252 252 252 252 251 251 251 251 251 250 250
2 1 1 0 1 1 1 360 0 2 4 5 6 6 5 5 5 5 5 4 4 5 3 3 3 3 4 6 7 8 9 8 8 7 5 6 7 7 6 6 4 2 359 357 354 352 350 346 343 340 337 334 330 327 323 319 315 311 306 301 296 292 288 285 281 276 272 268 266 265 263 261 259 257 255 254 253 252 252 252 250 249 250 250 249 249
359 358 359 359 359 360 359 360 1 2 3 4 5 5 5 5 3 3 4 4 4 4 4 3 3 4 5 7 8 8 9 9 9 8 6 6 7 8 8 6 5 4 2 359 357 355 353 350 347 343 340 337 334 330 327 323 320 316 312 308 302 297 292 288 284 281 278 274 271 268 265 263 261 260 258 256 255 254 253 253 252 250 249 249 249 249
357 357 357 357 358 358 359 360 360 0 2 3 4 5 6 5 3 2 3 4 4 3 4 4 4 4 5 7 7 7 8 9 9 8 8 7 8 8 8 7 6 5 3 1 359 357 355 353 350 347 344 340 337 333 330 327 324 320 316 312 308 304 298 293 288 285 282 279 275 271 267 265 263 262 260 259 257 255 254 254 253 252 250 249 249 249
356 357 356 356 357 357 358 358 358 359 0 2 3 4 5 4 4 3 2 3 4 4 5 5 4 5 6 6 6 7 8 8 9 9 8 8 8 8 9 8 7 5 4 2 1 359 357 355 353 351 348 345 342 338 334 331 328 325 321 317 313 308 304 298 293 289 285 281 278 275 271 268 265 263 261 260 259 257 256 255 254 253 252 250 250 249
355 355 356 356 356 356 356 357 357 358 359 1 2 2 3 3 3 4 4 3 4 5 5 5 5 5 6 6 5 6 8 8 9 10 10 9 9 9 9 9 8 6 5 4 2 0 359 357 355 354 351 349 346 342 338 335 332 329 326 322 317 313 309 303 299 294 288 284 281 278 275 272 268 265 262 260 259 258 257 257 256 255 254 252 251 250
354 353 354 355 355 355 356 356 357 357 358 359 360 360 1 2 3 5 5 4 5 5 4 4 6 6 6 5 5 6 7 9 10 11 11 10 9 9 9 9 8 7 5 4 3 2 0 359 357 356 354 351 348 345 342 339 336 333 330 326 322 318 314 309 305 299 294 288 284 280 278 275 272 269 266 263 261 259 258 257 257 256 255 254 252 251
352 352 352 353 354 355 355 356 356 356 357 358 359 359 360 1 3 4 4 4 4 5 5 5 5 6 6 5 5 6 8 10 11 11 12 11 10 10 9 9 8 8 6 5 4 3 1 0 359 357 355 354 351 349 346 343 340 338 334 330 326 322 319 314 310 305 300 295 289 284 280 277 275 273 270 267 264 261 259 258 257 257 256 256 254 252
350 350 351 352 354 355 355 355 355 356 357 357 358 359 359 360 2 3 3 4 4 4 5 6 5 5 5 5 6 7 8 10 10 11 12 12 11 10 9 9 8 8 7 6 5 4 3 1 360 358 357 356 355 353 350 346 343 341 338 334 331 327 323 319 315 310 305 301 295 290 285 281 278 275 273 271 268 264 261 259 258 257 256 256 256 255
347 348 350 351 352 354 355 355 355 356 356 357 358 358 359 359 360 1 3 3 4 3 4 5 5 4 5 6 7 8 9 9 10 11 11 12 11 11 10 9 9 8 8 7 6 5 4 2 1 0 359 358 357 355 352 349 347 344 341 338 335 332 328 324 320 316 311 307 301 296 291 286 282 279 276 274 271 268 265 262 259 258 257 256 256 256
346 348 349 350 351 352 354 355 355 355 355 356 357 357 358 358 358 360 2 3 3 4 3 3 4 4 4 6 7 8 8 9 9 10 11 11 12 11 10 9 9 9 9 8 7 6 5 4 3 2 1 360 358 356 354 352 350 348 345 343 340 336 333 329 326 322 318 313 309 303 297 291 286 283 280 277 275 272 269 266 263 260 258 257 256 255
346 347 348 349 350 351 352 354 355 355 355 356 356 356 356 357 358 359 0 1 3 4 4 3 3 4 4 5 5 6 7 8 9 9 10 11 11 11 11 10 9 9 9 9 8 7 6 6 5 3 2 1 360 358 357 355 353 351 349 347 344 340 337 333 330 327 324 320 315 310 305 299 292 287 284 281 278 276 273 270 267 263 261 259 257 256
346 346 347 348 350 350 351 352 353 354 355 355 355 355 356 357 358 358 359 360 1 2 3 3 3 3 4 3 3 5 6 7 8 8 9 10 11 11 11 10 10 10 9 9 9 8 7 7 6 5 3 2 2 1 359 358 356 355 353 351 348 344 340 336 332 330 327 325 320 315 311 306 300 293 288 284 282 279 277 274 270 267 264 261 259 257
345 345 346 347 349 349 350 351 352 353 354 355 354 354 355 356 357 358 358 359 360 1 2 3 2 2 2 2 2 3 5 6 7 7 8 9 10 10 11 11 10 10 9 9 9 9 9 8 7 6 4 3 3 3 2 0 359 358 356 354 351 348 343 339 335 332 329 327 325 320 315 310 306 300 294 289 285 282 279 277 274 271 267 263 261 259
344 344 345 346 347 348 349 350 352 352 352 353 354 354 355 356 357 357 357 358 359 360 360 1 1 1 2 2 2 3 4 5 5 6 6 7 8 9 10 10 10 10 9 9 10 10 10 9 7 6 6 4 4 4 3 2 2 1 359 357 355 351 347 343 338 334 331 330 328 325 320 315 310 305 300 296 291 287 282 278 275 273 270 266 263 260
341 343 344 344 345 347 348 349 350 351 352 352 353 354 354 355 356 357 357 357 358 359 359 359 0 1 1 2 2 3 3 4 4 5 5 6 7 8 9 9 10 10 10 9 10 10 10 9 8 7 7 6 5 5 4 4 3 3 2 0 358 355 351 347 342 337 335 333 331 329 326 322 316 310 305 301 297 293 288 283 279 275 271 268 265 261
337 340 341 342 343 345 346 347 348 349 351 351 353 353 354 355 356 356 356 356 356 357 358 359 359 0 1 1 2 2 2 3 3 4 4 5 6 7 7 8 9 9 9 10 10 10 10 10 9 8 7 7 6 5 5 4 4 3 3 2 1 359 355 351 346 341 339 336 335 333 330 328 324 319 313 308 303 298 294 289 285 280 274 270 266 263
335 338 339 340 341 342 343 345 346 348 350 351 352 353 354 354 355 354 355 355 355 355 357 359 359 359 360 0 1 2 2 2 3 3 3 4 5 6 6 7 8 8 9 10 10 10 9 10 10 9 8 8 7 6 6 5 5 4 3 3 3 2 359 355 349 346 344 342 340 337 335 332 329 326 322 317 312 306 301 296 291 286 280 274 268 265
335 336 338 340 341 341 343 344 346 347 349 350 352 352 353 353 353 353 353 354 355 355 356 358 359 359 359 360 0 0 1 2 2 2 3 4 4 5 5 6 7 8 8 9 9 9 9 9 9 10 10 9 8 7 6 6 6 5 4 3 3 3 2 359 355 351 348 346 344 341 339 337 334 331 327 323 320 314 309 303 298 292 286 280 274 268
334 335 337 339 340 341 343 344 345 346 348 349 350 350 351 352 352 352 353 353 354 354 354 356 358 359 359 360 360 360 360 1 2 2 2 3 3 4 5 5 6 7 8 8 9 9 9 9 9 9 10 10 9 8 7 6 6 6 4 3 3 3 2 1 360 357 353 349 347 345 343 342 340 337 333 328 324 320 316 310 305 299 292 286 280 274
333 334 335 337 339 341 342 343 344 345 346 347 348 349 350 350 350 351 352 352 352 353 353 354 356 358 359 359 359 359 359 0 1 2 2 2 3 4 4 5 5 6 7 7 8 9 9 9 8 8 9 10 10 9 8 7 6 6 5 4 3 3 2 2 1 0 358 354 350 348 347 346 344 342 340 336 330 326 321 316 311 305 299 292 287 281
332 333 334 336 338 339 341 342 343 344 345 345 346 347 348 348 349 349 350 351 351 351 352 353 355 357 358 358 359 359 359 359 0 1 2 2 3 3 4 4 5 5 6 6 7 8 8 9 9 8 8 9 10 10 9 8 7 6 6 5 4 3 2 1 1 1 0 358 355 352 350 349 348 347 344 343 339 335 329 323 317 311 305 298 292 287
330 332 333 334 336 338 339 340 342 342 343 344 345 345 345 346 347 348 349 349 350 350 351 352 353 355 357 358 358 359 359 359 359 0 2 2 2 3 3 4 4 5 5 5 6 7 8 8 9 8 8 8 9 10 10 9 7 6 6 6 5 3 2 1 1 1 1 360 359 356 353 351 351 350 349 346 345 342 338 332 326 319 313 305 298 292
329 330 331 333 334 336 338 338 339 340 341 342 343 343 343 344 346 347 347 348 349 349 350 351 352 354 356 357 358 358 358 358 359 0 1 2 2 2 3 3 3 4 4 4 5 6 7 8 8 9 8 8 8 9 10 10 9 7 6 6 5 4 3 2 2 2 1 0 360 358 357 355 352 352 351 350 348 347 344 340 334 328 322 315 306 298
327 329 330 331 332 333 335 336 337 338 340 341 341 341 342 343 344 345 346 346 347 349 350 350 351 353 355 357 357 357 357 358 359 360 1 1 2 2 2 2 3 3 3 3 4 5 6 7 7 8 9 8 8 8 8 9 9 9 7 6 5 5 4 2 2 2 1 1 360 359 358 357 355 353 353 352 351 349 348 345 341 336 331 324 317 308
325 327 328 329 330 331 333 335 336 337 338 339 339 340 341 342 342 343 344 345 346 348 349 350 351 352 354 355 356 356 356 357 358 360 0 1 2 2 2 2 1 2 2 2 3 4 5 5 7 8 9 9 8 8 8 8 9 9 9 7 5 5 4 3 2 2 2 1 0 359 358 357 356 355 354 353 353 351 350 348 346 342 338 332 326 319
324 325 326 328 329 330 331 333 335 335 336 337 338 339 340 341 340 341 343 344 346 347 348 349 350 351 353 354 354 355 356 356 357 358 360 0 1 1 1 1 0 0 1 1 2 3 3 4 5 7 8 9 9 8 7 7 7 8 9 8 7 5 4 3 2 2 2 1 1 360 359 358 357 355 354 353 353 353 352 350 348 347 344 339 334 328
322 323 324 326 327 328 329 331 332 333 334 336 337 338 338 339 340 340 341 343 345 346 347 348 349 351 352 353 353 354 355 355 356 357 358 359 359 360 360 360 359 359 360 0 1 2 2 3 4 5 7 8 9 9 8 7 6 7 8 8 8 6 4 3 3 2 1 1 1 1 360 358 357 356 355 354 353 353 353 352 351 349 347 344 339 334
320 322 323 324 325 326 327 329 330 332 333 335 335 335 336 337 338 339 340 342 343 345 346 347 348 350 351 353 353 353 353 355 356 356 357 357 357 358 358 358 358 358 359 359 360 1 1 2 3 4 5 7 8 8 8 7 6 6 6 7 8 7 6 4 3 2 1 1 1 1 0 359 357 356 355 355 353 352 351 352 352 351 348 346 343 339
319 320 321 322 323 324 325 327 329 330 331 332 332 333 334 336 337 338 339 341 342 344 346 346 347 349 350 352 352 352 352 353 355 356 356 356 356 357 357 357 358 358 358 358 359 359 0 1 2 3 4 5 7 8 8 7 6 5 5 6 7 8 7 5 3 2 1 0 0 1 1 360 359 357 356 354 353 352 351 350 351 351 350 348 344 341
317 318 319 320 322 323 324 325 326 327 328 329 330 332 333 334 336 337 338 340 341 343 345 346 346 348 349 350 351 351 351 352 353 354 355 355 356 356 356 357 357 357 357 357 358 358 359 360 1 2 3 4 5 6 7 7 7 5 4 4 5 6 7 7 4 2 1 0 360 359 0 0 360 359 357 355 353 352 351 350 349 349 349 349 346 342
316 317 318 320 321 322 323 324 325 326 327 328 330 331 332 333 334 335 337 338 340 342 344 345 346 347 348 349 350 350 351 351 352 354 354 355 355 355 356 356 356 356 356 356 357 357 358 359 360 1 2 3 4 5 6 7 7 6 5 4 4 4 6 7 6 4 2 0 359 359 359 360 360 359 358 356 354 352 351 350 349 347 347 347 347 344
316 316 317 318 319 321 322 323 324 325 326 328 329 330 330 331 332 333 335 338 340 342 344 345 345 346 347 348 349 349 350 351 352 353 354 355 355 355 355 355 355 355 355 355 356 356 357 358 359 0 1 1 2 3 4 5 6 6 5 4 3 3 4 5 6 6 3 1 359 358 358 358 359 359 359 357 355 353 351 350 348 347 346 345 345 345
315 315 316 317 318 319 320 321 322 323 325 326 327 327 328 330 331 333 335 337 340 342 343 344 344 345 346 347 348 348 349 351 352 353 353 354 354 354 354 354 354 354 354 354 354 355 356 357 358 359 360 0 1 2 3 4 5 5 5 4 3 3 3 3 5 6 5 2 0 358 358 357 357 358 358 358 357 355 353 350 348 347 346 344 344 343
314 314 315 316 317 317 318 319 320 321 322 323 324 325 327 329 330 332 335 337 339 341 343 343 343 343 345 346 347 348 349 350 351 352 352 353 353 353 353 353 352 353 353 353 353 354 355 356 357 358 359 360 360 0 1 2 3 4 4 4 3 2 2 2 3 4 5 4 1 359 358 357 356 356 356 357 356 356 354 352 349 347 345 344 343 342
313 314 314 315 315 316 316 317 318 319 320 322 323 325 326 328 330 332 334 337 339 340 342 342 342 342 344 345 346 347 348 349 350 351 351 352 352 352 352 351 351 351 351 352 352 352 353 354 356 357 358 358 359 359 360 1 2 3 3 4 3 2 2 1 1 2 3 4 3 0 358 357 356 356 355 355 355 355 355 353 351 348 346 344 343 342
313 313 314 314 314 314 315 316 317 319 320 322 323 324 325 327 329 331 334 336 338 340 341 341 341 341 343 344 345 346 347 348 349 349 350 350 350 350 351 350 350 349 349 350 350 351 352 353 354 355 356 357 358 358 359 359 0 2 2 3 3 2 2 1 1 1 1 2 2 2 360 357 356 355 355 355 355 354 354 353 352 350 348 345 343 341
314 314 314 315 316 316 317 318 318 319 320 321 321 322 324 325 328 331 333 336 338 339 340 340 340 340 342 343 344 345 346 346 347 348 348 348 349 349 349 349 349 348 348 348 349 350 351 352 353 354 355 356 356 357 357 358 359 0 1 2 2 2 1 1 0 0 360 0 1 1 1 359 356 355 354 355 355 354 353 353 352 350 348 346 344 342
318 318 319 319 320 321 321 321 321 320 320 320 321 321 323 325 327 331 333 336 338 338 338 339 339 339 340 341 342 344 344 345 346 346 347 347 347 348 348 348 347 347 347 347 348 349 350 351 352 353 354 355 355 356 356 356 357 359 360 1 1 2 1 1 0 360 359 359 359 360 0 360 358 356 354 353 354 354 353 353 353 352 349 346 344 342
322 323 323 323 324 324 324 324 323 322 322 321 321 322 323 325 328 331 334 336 337 337 337 337 338 338 339 340 341 342 343 344 345 345 346 346 346 346 347 346 346 346 346 346 347 348 349 349 351 352 353 353 354 354 355 355 356 357 358 359 0 1 1 1 0 360 359 359 358 358 359 359 359 357 355 353 352 353 353 352 352 352 351 348 344 342
323 323 323 323 323 323 323 323 322 322 322 322 323 324 325 327 330 333 335 336 337 337 336 336 337 338 339 339 340 341 342 343 344 344 344 345 345 345 345 345 345 345 345 345 346 347 348 348 349 350 351 352 353 353 354 354 355 356 357 357 359 360 1 0 360 359 359 358 358 358 358 358 359 358 357 354 351 351 351 352 351 351 352 351 347 343
321 321 321 321 321 321 321 321 320 320 321 322 324 326 327 329 332 334 335 336 336 336 336 336 337 338 338 339 339 340 341 342 343 343 343 344 344 344 344 344 344 344 344 344 345 346 347 347 348 349 350 351 351 352 352 353 353 354 355 356 357 359 359 360 360 359 359 358 358 357 357 357 358 358 358 356 353 350 349 350 351 351 351 351 349 345
319 320 320 321 321 321 321 320 321 321 322 324 327 329 330 332 334 335 336 336 335 335 336 337 337 338 338 339 339 340 340 341 341 342 342 343 343 342 342 342 342 342 343 343 344 345 345 346 347 348 349 350 350 351 351 352 352 353 354 355 356 357 358 359 359 359 358 358 357 357 356 356 356 357 357 357 355 352 350 348 349 349 350 350 350 348
319 319 320 321 322 322 323 323 324 326 327 328 331 333 334 335 336 336 336 336 335 336 337 337 338 338 338 338 339 339 339 339 340 341 341 341 341 341 341 341 341 341 342 342 343 344 344 345 346 347 348 349 349 350 350 351 351 352 352 353 354 356 357 357 358 358 357 357 356 356 355 355 355 356 357 357 356 354 352 350 348 348 348 348 349 349